YAOGAN-22

Last updated on Tue Oct 15 2024 00:02:24 GMT+0000 (Coordinated Universal Time)

1 40275U 14063A 24288.33574481 .00000011 00000+0 15294-3 0 9996 2 40275 100.6821 61.0631 0006861 124.2299 235.9463 13.15492934479491
UTC large
Height (km)
Speed (km/s)
/
Latitude / Longitude
Inclination (degrees)
Orbital Period (minutes)
Azimuth
Elevation
Range (km)
Doppler Factor

Next 0 passes for location: London (51.5072 / 0.1276)

Sorry there are no passes over London.